Location: Rayville (historical)
(39.9992°N, 99.6815°W)
Time: 08:10:47
(UTC+00:00)

USA 229 DEB - Pass Details

Date: 18 February 2020
Orbit: 988 x 1224 km, 63.4° (Epoch: 26 March)

Event Time Altitude Azimuth Distance (km) Brightness Sun altitude
Rises 02:19:03 0° 225° (SW) 3,697 7.1 -24.1°
Reaches altitude 10° 02:21:38 10° 229° (SW) 2,764 6.4 -24.6°
Maximum altitude 02:28:01 59° 309° (NW) 1,176 4.1 -25.8°
Enters shadow 02:33:21 17° 25° (NNE) 2,416 5.4 -26.8°
